Showing default

RELAY 2, 737

Orbit data source: Space-Track

RELAY 2, 737 is a payload satellite owned by GSFC (US) that was launched on Tue, 21 Jan 1964 UTC via a THOR DELTA B launch vehicle from the Air Force Eastern Test Range (AFETR). Payload-class satellites include a variety of spacecraft equipped with specific instruments for various scientific and technological missions. These include communications satellites like Starlink; space stations such as the ISS; scientific satellites like the Hubble; Earth observation satellites from companies like Planet Labs, Umbra, and HawkEye 360; GPS; miniature CubeSats for education and research; and military/defense satellites.

Loading next visibility...
Identifier
737, 1964-003A
Orbit
Active
Country
Flag of USUS
Related business
Manufacturer
RCA/East Windsor
Mission
Civil Communications
Bus & Motor
RELAY, Unknown motor
Mass
83 kg wet, 83 kg dry
Launch date (UTC)
1964-01-21 (62 years ago)
Launch vehicle
THOR DELTA B
Launch site
Air Force Eastern Test Range (AFETR)
Object type
Payload
Rocket body
Debris
Shape & HBR
Oct Cyl, 0.4 m
Radar Cross Section
0.652 m², Medium (>0.1 m² and < 1m²)

Expand to show TLE details & history
Last TLE update: 18 hours ago

TLE from 18 hours ago
0 RELAY 2
1 00737U 64003A   25259.07023078 -.00000025  00000-0  00000-0 0  9998
2 00737  46.4561 294.2553 2599533  73.7900 313.1015  7.39533957665818
Epoch: 2025-09-16T01:41Z
TLE epoch observation values (Epoch: 2025-09-16T01:41:07.939Z)
Latitude
0.00002°
Longitude
-86.29357°
Altitude
3,293.583 km
Speed
6.828 km/s
True Right ascension
19h 37m 01s
True Declination
0° 00' 00"
Sunlit
Object was in daylight at epoch
Visualization orbit readout
Latitude
Unknown
Longitude
Unknown
Altitude
Unknown
Speed
Unknown
Apparent Right ascension
Unknown
Apparent Declination
Unknown
Sunlit
N/A
Visualization observer readout
Local Sidereal Time
12:24:44
Azimuth
Unknown
Elevation
Unknown
Doppler factor
Unknown
Orbital elements
Apogee altitude
7,644.214 km
Perigee altitude
1,858.037 km
Semi-major axis
11,129.262 km
Eccentricity
0.25995
Inclination
46.4561°
RAAN
294.2553°
Arg. of periapsis
73.79°
True anomaly
286.27503°
Mean anomaly
313.1015°
Eccentric anomaly
300.23313°
Mean motion
1.8486 °/min
Orbital period
194.74 mins
BSTAR
0
Loading maneuver chart data...
Computing Atmospheric mass density...
Loading historical data...
Loading historical data...
Loading historical data...
Loading historical data...
Loading historical data...
Loading historical data...
Loading historical data...
Other satellites on launch #3 in the year 1964 (1964-01-21 UTC)

Documentation

Showing up to 5 results
|